You are listening to:
SABE Gnd/Twr/App - Buenos Aires, Argentina

SABE 201600Z 02004KT 330V060 CAVOK 28/15 Q1019 NOSIG

If stream doesn't start automatically press the play button
If stream stops then reload player then press play